{"data":{"norad_id":63685,"epoch":"2026-05-24T21:23:24.139104Z","epoch_age_seconds":84599,"freshness":"FRESH","line1":"1 63685U 25085X   26144.89125161  .00014047  00000+0  51857-3 0  9992","line2":"2 63685  42.9971 320.5981 0002441 258.1918 101.8660 15.27606810 60526","mean_motion":15.2760681,"eccentricity":0.0002441,"inclination_deg":42.9971,"raan_deg":320.5981,"arg_perigee_deg":258.1918,"mean_anomaly_deg":101.866,"bstar":0.00051857,"rev_number":6052,"period_min":94.265094301327,"perigee_km":481.29402249863,"apogee_km":484.64361435919,"semimajor_km":6861.1058184289,"source":"CELESTRAK","updated_at":"2026-05-25T13:38:20.095026Z"}}